Location: Lynch Observatory
(39.9540°N, 75.1861°W)
Time: 01:27:06
(UTC-04:00)

UNISAT 6 - Visible Passes

Search period start: 16 April 2024 00:00
Search period end: 26 April 2024 00:00
Orbit: 594 x 670 km, 97.7° (Epoch: 15 April)

Date Brightness Start Highest point End Pass type
(mag) Time Alt. Az. Time Alt. Az. Time Alt. Az.
16 Apr ? 04:03:31 10° ESE 04:06:57 22° ENE 04:10:20 10° NNE visible
16 Apr ? 05:39:03 10° SSW 05:43:07 33° W 05:47:07 10° NNW visible
17 Apr ? 04:23:39 10° SE 04:27:44 35° ENE 04:31:43 10° N visible
18 Apr ? 04:44:09 10° SSE 04:48:32 60° ENE 04:52:52 10° N visible
19 Apr ? 05:04:57 10° S 05:09:24 79° WSW 05:13:48 10° NNW visible
20 Apr ? 03:51:33 10° ESE 03:54:18 17° ENE 03:57:02 10° NNE visible
20 Apr ? 05:26:03 10° S 05:30:19 45° W 05:34:31 10° NNW visible
21 Apr ? 04:11:19 10° SE 04:14:59 26° ENE 04:18:37 10° NNE visible
22 Apr ? 04:31:33 10° SE 04:35:43 43° ENE 04:39:50 10° N visible
23 Apr ? 04:52:07 10° SSE 04:56:30 76° ENE 05:00:50 10° N visible
24 Apr ? 03:39:47 10° E 03:41:28 12° ENE 03:43:09 10° NE visible
24 Apr ? 05:12:58 10° S 05:17:19 63° W 05:21:36 10° NNW visible
25 Apr ? 03:58:56 10° ESE 04:02:04 20° ENE 04:05:09 10° NNE visible
25 Apr ? 05:34:09 10° SSW 05:38:10 36° W 05:42:10 10° NNW visible
